When you browse on this site, cookies collect data to enhance your experience and personalize the content and advertising you see.
Visit our Privacy Policy to learn more. By continuing to use the site, you agree to this use of cookies and data.
  • In Czech Republic
  • List of Countries
  • For 7 days
  • Water Temperature
  • Weather Map
  • Weather Widgets
  • user-avatar
    Login

    Hourly Weather San Juan

    Today, 17 February, Monday

    Time Temperature Precipitation Wind Pressure Humidity
    00:00 +32°C° 0.1 mm 2 mps 699 mmHg 52%
    01:00 +31°C° 0.1 mm 1 mps 699 mmHg 54%
    02:00 +31°C° 0 mm 1 mps 699 mmHg 56%
    03:00 +30°C° 0 mm 1 mps 699 mmHg 57%
    04:00 +30°C° 0 mm 1 mps 699 mmHg 59%
    05:00 +30°C° 0 mm 1 mps 699 mmHg 57%
    06:00 +31°C° 0 mm 1 mps 699 mmHg 55%
    07:00 +32°C° 0 mm 1 mps 699 mmHg 53%
    08:00 +35°C° 0 mm 2 mps 700 mmHg 46%
    09:00 +37°C° 0 mm 2 mps 700 mmHg 39%
    10:00 +38°C° 0 mm 3 mps 700 mmHg 31%
    11:00 +40°C° 0 mm 5 mps 700 mmHg 29%
    12:00 +41°C° 0 mm 7 mps 700 mmHg 27%
    13:00 +43°C° 0 mm 8 mps 700 mmHg 25%
    14:00 +42°C° 0 mm 9 mps 699 mmHg 28%
    15:00 +39°C° 0 mm 10 mps 699 mmHg 31%
    16:00 +38°C° 0 mm 10 mps 699 mmHg 34%
    17:00 +36°C° 0 mm 11 mps 700 mmHg 36%
    18:00 +34°C° 0 mm 11 mps 701 mmHg 38%
    19:00 +32°C° 0 mm 12 mps 702 mmHg 41%
    20:00 +31°C° 0 mm 11 mps 703 mmHg 38%
    21:00 +29°C° 0 mm 11 mps 704 mmHg 36%
    22:00 +27°C° 0 mm 10 mps 706 mmHg 34%
    23:00 +27°C° 0 mm 10 mps 706 mmHg 34%

    Tomorrow, 18 February, Tuesday

    Time Temperature Precipitation Wind Pressure Humidity
    00:00 +26°C° 0 mm 9 mps 706 mmHg 34%
    01:00 +24°C° 0 mm 8 mps 706 mmHg 34%
    02:00 +24°C° 0 mm 7 mps 707 mmHg 35%
    03:00 +23°C° 0 mm 6 mps 707 mmHg 36%
    04:00 +22°C° 0 mm 6 mps 707 mmHg 37%
    05:00 +23°C° 0 mm 5 mps 707 mmHg 34%
    06:00 +23°C° 0 mm 5 mps 708 mmHg 30%
    07:00 +25°C° 0 mm 4 mps 708 mmHg 26%
    08:00 +26°C° 0 mm 4 mps 708 mmHg 25%
    09:00 +27°C° 0 mm 3 mps 708 mmHg 23%
    10:00 +28°C° 0 mm 3 mps 707 mmHg 21%
    11:00 +29°C° 0 mm 3 mps 707 mmHg 21%
    12:00 +30°C° 0 mm 2 mps 706 mmHg 21%
    13:00 +31°C° 0 mm 2 mps 705 mmHg 21%
    14:00 +32°C° 0 mm 2 mps 705 mmHg 20%
    15:00 +32°C° 0 mm 2 mps 704 mmHg 20%
    16:00 +34°C° 0 mm 2 mps 704 mmHg 20%
    17:00 +32°C° 0 mm 2 mps 704 mmHg 21%
    18:00 +31°C° 0 mm 2 mps 704 mmHg 22%
    19:00 +30°C° 0 mm 2 mps 704 mmHg 24%
    20:00 +29°C° 0 mm 2 mps 704 mmHg 25%
    21:00 +28°C° 0 mm 2 mps 704 mmHg 27%
    22:00 +28°C° 0 mm 1 mps 704 mmHg 29%
    23:00 +27°C° 0 mm 2 mps 704 mmHg 31%

    Day after tomorrow, 19 February, Wednesday

    Time Temperature Precipitation Wind Pressure Humidity
    00:00 +27°C° 0 mm 2 mps 704 mmHg 33%
    01:00 +26°C° 0 mm 3 mps 703 mmHg 36%
    02:00 +26°C° 0 mm 2 mps 703 mmHg 38%
    03:00 +25°C° 0 mm 1 mps 702 mmHg 41%
    04:00 +25°C° 0 mm 1 mps 702 mmHg 43%
    05:00 +26°C° 0 mm 1 mps 703 mmHg 40%
    06:00 +27°C° 0 mm 1 mps 703 mmHg 37%
    07:00 +28°C° 0 mm 1 mps 704 mmHg 34%
    08:00 +30°C° 0 mm 1 mps 703 mmHg 31%
    09:00 +31°C° 0 mm 2 mps 703 mmHg 28%
    10:00 +32°C° 0 mm 2 mps 703 mmHg 26%
    11:00 +35°C° 0 mm 3 mps 703 mmHg 24%
    12:00 +36°C° 0 mm 4 mps 703 mmHg 21%
    13:00 +37°C° 0 mm 4 mps 703 mmHg 19%
    14:00 +37°C° 0 mm 5 mps 702 mmHg 18%
    15:00 +39°C° 0 mm 5 mps 702 mmHg 17%
    16:00 +39°C° 0 mm 6 mps 702 mmHg 16%
    17:00 +38°C° 0 mm 6 mps 702 mmHg 19%
    18:00 +36°C° 0 mm 6 mps 703 mmHg 21%
    19:00 +34°C° 0 mm 5 mps 703 mmHg 23%
    20:00 +33°C° 0 mm 5 mps 704 mmHg 28%
    21:00 +33°C° 0 mm 4 mps 705 mmHg 32%
    22:00 +32°C° 0 mm 4 mps 705 mmHg 37%
    23:00 +30°C° 0 mm 4 mps 705 mmHg 37%

    20 February, Thursday

    Time Temperature Precipitation Wind Pressure Humidity
    00:00 +30°C° 0 mm 5 mps 705 mmHg 36%
    01:00 +30°C° 0 mm 5 mps 706 mmHg 36%
    02:00 +29°C° 0 mm 6 mps 706 mmHg 34%
    03:00 +27°C° 0 mm 7 mps 706 mmHg 33%
    04:00 +26°C° 0 mm 8 mps 706 mmHg 31%
    05:00 +26°C° 0 mm 8 mps 706 mmHg 31%
    06:00 +26°C° 0 mm 8 mps 707 mmHg 31%
    07:00 +26°C° 0 mm 7 mps 707 mmHg 32%
    08:00 +27°C° 0 mm 8 mps 708 mmHg 29%
    09:00 +28°C° 0 mm 9 mps 708 mmHg 27%
    10:00 +29°C° 0 mm 9 mps 708 mmHg 24%
    11:00 +31°C° 0 mm 9 mps 708 mmHg 23%
    12:00 +31°C° 0 mm 9 mps 708 mmHg 22%
    13:00 +31°C° 0 mm 9 mps 707 mmHg 21%
    14:00 +31°C° 0 mm 9 mps 707 mmHg 21%
    15:00 +31°C° 0 mm 9 mps 706 mmHg 21%
    16:00 +31°C° 0 mm 9 mps 706 mmHg 21%
    17:00 +29°C° 0 mm 8 mps 707 mmHg 22%
    18:00 +28°C° 0 mm 8 mps 707 mmHg 22%
    19:00 +27°C° 0 mm 7 mps 708 mmHg 23%
    20:00 +27°C° 0 mm 7 mps 709 mmHg 22%
    21:00 +26°C° 0 mm 6 mps 709 mmHg 22%
    22:00 +26°C° 0 mm 6 mps 710 mmHg 21%
    23:00 +26°C° 0 mm 6 mps 710 mmHg 22%

    21 February, Friday

    Time Temperature Precipitation Wind Pressure Humidity
    00:00 +25°C° 0 mm 5 mps 710 mmHg 22%
    01:00 +25°C° 0 mm 5 mps 710 mmHg 22%
    08:00 +23°C° 0 mm 4 mps 710 mmHg 24%
    09:00 +25°C° 0 mm 4 mps 710 mmHg 22%
    10:00 +26°C° 0 mm 4 mps 710 mmHg 21%
    11:00 +27°C° 0 mm 3 mps 709 mmHg 21%
    12:00 +28°C° 0 mm 3 mps 709 mmHg 20%
    13:00 +29°C° 0 mm 3 mps 708 mmHg 20%
    14:00 +30°C° 0 mm 3 mps 708 mmHg 20%
    15:00 +30°C° 0 mm 3 mps 707 mmHg 20%
    16:00 +30°C° 0 mm 4 mps 706 mmHg 20%
    17:00 +29°C° 0 mm 3 mps 707 mmHg 21%
    18:00 +28°C° 0 mm 3 mps 707 mmHg 22%
    19:00 +27°C° 0 mm 3 mps 707 mmHg 24%
    20:00 +27°C° 0 mm 2 mps 708 mmHg 26%
    21:00 +26°C° 0 mm 2 mps 708 mmHg 27%
    22:00 +25°C° 0 mm 2 mps 708 mmHg 29%
    23:00 +25°C° 0 mm 2 mps 708 mmHg 31%

    22 February, Saturday

    Time Temperature Precipitation Wind Pressure Humidity
    00:00 +24°C° 0 mm 2 mps 707 mmHg 34%
    01:00 +23°C° 0 mm 2 mps 707 mmHg 36%
    02:00 +23°C° 0 mm 2 mps 707 mmHg 37%
    03:00 +23°C° 0 mm 2 mps 706 mmHg 38%
    04:00 +21°C° 0 mm 2 mps 706 mmHg 39%
    05:00 +23°C° 0 mm 2 mps 706 mmHg 37%
    06:00 +24°C° 0 mm 2 mps 707 mmHg 34%
    07:00 +26°C° 0 mm 2 mps 707 mmHg 32%
    08:00 +27°C° 0 mm 2 mps 707 mmHg 29%
    09:00 +28°C° 0 mm 2 mps 707 mmHg 26%
    10:00 +30°C° 0 mm 2 mps 706 mmHg 23%
    11:00 +31°C° 0 mm 2 mps 706 mmHg 21%
    12:00 +32°C° 0 mm 2 mps 705 mmHg 20%
    13:00 +34°C° 0 mm 2 mps 705 mmHg 19%
    14:00 +35°C° 0 mm 3 mps 704 mmHg 19%
    15:00 +35°C° 0 mm 3 mps 704 mmHg 18%
    16:00 +35°C° 0 mm 4 mps 703 mmHg 18%
    17:00 +34°C° 0 mm 3 mps 703 mmHg 22%
    18:00 +31°C° 0 mm 3 mps 703 mmHg 27%
    19:00 +30°C° 0 mm 3 mps 704 mmHg 31%
    20:00 +29°C° 0 mm 3 mps 704 mmHg 33%
    21:00 +28°C° 0 mm 2 mps 704 mmHg 36%
    22:00 +27°C° 0 mm 2 mps 705 mmHg 39%
    23:00 +27°C° 0 mm 2 mps 704 mmHg 40%
    Show more